Content
SEND FEEDBACK

Daily
Averages
Monthly
Summary
United States of America

GRAYSON, KENTUCKY


Home > North America > United States > Kentucky
Elevation: 18 meters     Latitude: 38 19N     Longitude: 082 57W

WEATHER
 
SELECT A DAY
Number of Records: 222,213;   Date Range: 1/1/95 - 11/21/14
 
SHARE

PRINT THIS DATA

[ ← Previous Day ]
WEATHER ALMANAC - 13 FEBRUARY, 2013
[ Next Day → ]
[ °F ]   °C
Weather ElementAverageHighLow
Temperature2.1 °C5 °C (10:51 am)0 °C (11:51 pm)
Dewpoint-1.5 °C1 °C (4:48 pm)-3.9 °C (1:51 am)
Humidity78.6 %93 % (4:48 pm)57 % (10:51 am)
Barometer1009.8 hPa1014.2 hPa (11:51 pm)1005.8 hPa (1:51 pm)
Wind Speed7.2 km/h18.5 km/h (2:34 pm)
Wind Gust33.3 km/h (2:51 pm)
Weather ElementAverage
Visibility12.1 km
Wind DirectionSW (225.8 °)

Weather ElementTotal
Precipitation2.03 mm
Heating Degree Days15.8 (Base 18.3)
Averaged from 31 records on 13 February, 2013
WEATHER CONDITIONS BREAKOUT
WIND DIRECTION BREAKOUT
WEATHER BY HOUR - 13 FEBRUARY, 2013
[ °F ]   °C
Local TimeTemperatureDewpointHumidityBarometerVisibilityWind DirectionWind SpeedGust SpeedPrecipitationEventsConditions
1:51 AM1.7 °C-3.9 °C67 %1011.5 hPa16.1 kmCalmClear
2:51 AM2.2 °C-2.8 °C70 %1010.8 hPa16.1 kmNNE (30°)5.6 km/hOvercast
3:51 AM2.2 °C-2.8 °C70 %1010.5 hPa16.1 kmCalmOvercast
4:51 AM1.7 °C-2.2 °C76 %1009.8 hPa16.1 kmNorth (360°)5.6 km/hOvercast
5:51 AM1.7 °C-2.2 °C76 %1008.5 hPa16.1 kmNorth (360°)5.6 km/hOvercast
6:51 AM2.2 °C-3.9 °C64 %1007.5 hPa16.1 kmCalmMostly Cloudy
7:51 AM2.8 °C-3.9 °C62 %1007.1 hPa16.1 kmCalmOvercast
8:51 AM3.3 °C-2.8 °C65 %1007.5 hPa16.1 kmWest (280°)5.6 km/hOvercast
9:51 AM4.4 °C-2.8 °C60 %1007.1 hPa11.3 kmNorth (350°)7.4 km/hOvercast
10:51 AM5 °C-2.8 °C57 %1006.8 hPa16.1 kmNNW (340°)13 km/hOvercast
11:51 AM5 °C-2.2 °C60 %1006.1 hPa16.1 kmNNW (330°)9.3 km/h0 mmOvercast
12:51 PM5 °C-1.7 °C62 %1006.1 hPa16.1 kmNW (310°)7.4 km/h0 mmRainLight Rain
1:51 PM4.4 °C-0.6 °C70 %1005.8 hPa9.7 kmNNW (330°)13 km/h0 mmRainLight Rain
2:34 PM2 °C0 °C87 %1006.8 hPa4 kmNW (320°)18.5 km/h0 mmRainLight Rain
2:51 PM1.1 °C-0.6 °C89 %1007.5 hPa1.6 kmNNW (330°)18.5 km/h33.3 km/h0.25 mmSnowLight Snow
3:17 PM1 °C-1 °C87 %1007.5 hPa1.3 kmNW (310°)11.1 km/h0.25 mmSnowLight Snow
3:51 PM1.1 °C0 °C92 %1008.5 hPa1.6 kmNW (320°)11.1 km/h0.76 mmSnowLight Snow
4:48 PM2 °C1 °C93 %1008.8 hPa4 kmNW (310°)7.4 km/h0.25 mmSnowLight Snow
4:51 PM1.7 °C0.6 °C92 %1009.5 hPa4.8 kmWNW (300°)7.4 km/h0.25 mmSnowLight Snow
5:51 PM1.7 °C0 °C89 %1010.2 hPa9.7 kmCalm0 mmOvercast
6:51 PM1.7 °C0 °C89 %1010.8 hPa6.4 kmCalm0.25 mmSnowLight Snow
7:43 PM2 °C0 °C87 %1011.5 hPa11.3 kmWSW (240°)7.4 km/h0 mmOvercast
7:51 PM1.7 °C0 °C89 %1012.2 hPa11.3 kmWSW (250°)7.4 km/h0 mmOvercast
8:51 PM1.7 °C-0.6 °C85 %1012.5 hPa16.1 kmWSW (250°)11.1 km/hOvercast
9:40 PM1 °C-1 °C87 %1012.9 hPa16.1 kmWest (260°)11.1 km/hScattered Clouds
9:51 PM1.1 °C-1.1 °C85 %1013.5 hPa16.1 kmWSW (250°)7.4 km/hPartly Cloudy
10:30 PM1 °C-1 °C87 %1013.2 hPa16.1 kmWest (260°)7.4 km/hMostly Cloudy
10:51 PM0.6 °C-1.7 °C85 %1013.9 hPa16.1 kmWest (260°)9.3 km/hMostly Cloudy
11:00 PM1 °C-2 °C81 %1013.2 hPa16.1 kmWSW (250°)7.4 km/hScattered Clouds
11:51 PM0 °C-1.7 °C88 %1014.2 hPa11.3 kmSSW (200°)5.6 km/hScattered Clouds
11:59 PM0 °C-2 °C87 %1013.5 hPa11.3 kmSSW (200°)5.6 km/hMostly Cloudy
Hourly data recorded from KHTS, located 0 kilometers away from Grayson, Kentucky







STORIES FROM OUR PARTNERS